TimeEST,TemperatureF,Dew PointF,Humidity,Sea Level PressureIn,VisibilityMPH,Wind Direction,Wind SpeedMPH,Gust SpeedMPH,PrecipitationIn,Events,Conditions,WindDirDegrees,DateUTC
12:55 AM,24.1,16.3,72,30.02,10.0,West,5.8,-,N/A,,Overcast,280,2013-02-16 05:55:00
1:01 AM,24.8,15.8,69,30.02,10.0,West,6.9,-,N/A,,Overcast,280,2013-02-16 06:01:00
1:16 AM,23.0,14.0,68,30.03,10.0,Variable,4.6,-,N/A,,Overcast,0,2013-02-16 06:16:00
1:26 AM,23.0,14.0,68,30.03,10.0,Variable,5.8,-,N/A,,Overcast,0,2013-02-16 06:26:00
1:54 AM,21.2,12.2,68,30.04,10.0,NW,8.1,-,N/A,,Overcast,320,2013-02-16 06:54:00
1:55 AM,21.6,12.6,68,30.04,10.0,NW,8.1,-,N/A,,Overcast,320,2013-02-16 06:55:00
2:55 AM,20.1,11.3,69,30.04,10.0,WNW,5.8,-,N/A,,Overcast,290,2013-02-16 07:55:00
3:55 AM,18.0,10.6,73,30.04,10.0,WNW,5.8,-,N/A,,Overcast,300,2013-02-16 08:55:00
4:49 AM,17.6,10.4,73,30.04,10.0,WNW,6.9,-,N/A,,Overcast,290,2013-02-16 09:49:00
4:55 AM,16.7,10.2,76,30.05,10.0,WNW,5.8,-,N/A,,Overcast,290,2013-02-16 09:55:00
5:15 AM,15.8,10.4,79,30.05,10.0,WNW,5.8,-,N/A,Snow,Light Snow,300,2013-02-16 10:15:00
5:46 AM,15.8,10.4,79,30.04,10.0,NW,4.6,-,N/A,,Overcast,310,2013-02-16 10:46:00
5:55 AM,15.3,10.0,80,30.04,10.0,NW,4.6,-,0.00,,Overcast,320,2013-02-16 10:55:00
6:22 AM,14.0,8.6,79,30.04,10.0,NNW,3.5,-,N/A,,Overcast,340,2013-02-16 11:22:00
6:31 AM,14.0,8.6,79,30.05,10.0,North,4.6,-,N/A,,Overcast,360,2013-02-16 11:31:00
6:39 AM,12.2,8.6,85,30.05,10.0,North,4.6,-,N/A,,Mostly Cloudy,360,2013-02-16 11:39:00
6:42 AM,12.2,8.6,85,30.05,10.0,North,3.5,-,N/A,,Scattered Clouds,10,2013-02-16 11:42:00
6:45 AM,12.2,8.6,85,30.05,10.0,North,3.5,-,N/A,,Mostly Cloudy,10,2013-02-16 11:45:00
6:55 AM,12.0,8.6,86,30.05,10.0,Calm,Calm,-,N/A,,Mostly Cloudy,0,2013-02-16 11:55:00
6:57 AM,12.2,8.6,85,30.05,10.0,Calm,Calm,-,N/A,,Mostly Cloudy,0,2013-02-16 11:57:00
6:58 AM,12.2,8.6,85,30.05,10.0,Calm,Calm,-,N/A,,Scattered Clouds,0,2013-02-16 11:58:00
7:55 AM,10.8,8.4,90,30.08,10.0,NNE,3.5,-,N/A,,Scattered Clouds,30,2013-02-16 12:55:00
7:59 AM,10.4,8.6,92,30.08,10.0,NNE,5.8,-,N/A,,Mostly Cloudy,30,2013-02-16 12:59:00
8:04 AM,10.4,8.6,92,30.08,10.0,NNE,5.8,-,N/A,,Mostly Cloudy,20,2013-02-16 13:04:00
8:05 AM,10.4,8.6,92,30.08,10.0,NNE,5.8,-,N/A,,Mostly Cloudy,20,2013-02-16 13:05:00
8:08 AM,10.4,8.6,92,30.08,10.0,NNE,8.1,-,N/A,,Mostly Cloudy,30,2013-02-16 13:08:00
8:09 AM,10.4,8.6,92,30.08,10.0,NNE,8.1,-,N/A,,Mostly Cloudy,30,2013-02-16 13:09:00
8:14 AM,10.4,8.6,92,30.08,10.0,NNE,8.1,-,N/A,Snow,Light Snow,30,2013-02-16 13:14:00
8:21 AM,12.2,8.6,85,30.08,10.0,NNE,6.9,-,N/A,Snow,Light Snow,20,2013-02-16 13:21:00
8:40 AM,12.2,8.6,85,30.08,10.0,NNE,8.1,-,N/A,Snow,Light Snow,20,2013-02-16 13:40:00
8:45 AM,12.2,8.6,85,30.08,10.0,NNE,6.9,-,N/A,Snow,Light Snow,20,2013-02-16 13:45:00
8:50 AM,12.2,6.8,79,30.08,10.0,NNE,8.1,-,N/A,,Overcast,20,2013-02-16 13:50:00
8:52 AM,12.2,6.8,79,30.08,10.0,NNE,9.2,-,N/A,,Overcast,20,2013-02-16 13:52:00
8:55 AM,12.2,7.7,82,30.08,10.0,NNE,8.1,-,0.00,,Overcast,20,2013-02-16 13:55:00
9:00 AM,12.2,8.6,85,30.08,10.0,NNE,6.9,-,N/A,,Mostly Cloudy,20,2013-02-16 14:00:00
9:07 AM,12.2,8.6,85,30.08,10.0,NNE,8.1,-,N/A,,Scattered Clouds,30,2013-02-16 14:07:00
9:11 AM,12.2,6.8,79,30.08,10.0,NNE,8.1,-,N/A,,Mostly Cloudy,30,2013-02-16 14:11:00
9:22 AM,12.2,8.6,85,30.08,10.0,NNE,8.1,-,N/A,,Mostly Cloudy,20,2013-02-16 14:22:00
9:25 AM,12.2,8.6,85,30.08,10.0,NNE,6.9,-,N/A,,Mostly Cloudy,20,2013-02-16 14:25:00
9:26 AM,14.0,8.6,79,30.08,10.0,NNE,6.9,-,N/A,,Mostly Cloudy,30,2013-02-16 14:26:00
9:41 AM,14.0,8.6,79,30.08,10.0,NE,6.9,-,N/A,,Overcast,50,2013-02-16 14:41:00
9:42 AM,14.0,8.6,79,30.08,10.0,NE,6.9,-,N/A,,Overcast,40,2013-02-16 14:42:00
9:43 AM,14.0,8.6,79,30.08,10.0,NE,6.9,-,N/A,,Overcast,50,2013-02-16 14:43:00
9:51 AM,14.0,8.6,79,30.08,10.0,ENE,6.9,-,N/A,,Overcast,60,2013-02-16 14:51:00
9:53 AM,14.0,8.6,79,30.08,10.0,NE,6.9,-,N/A,,Mostly Cloudy,50,2013-02-16 14:53:00
9:55 AM,14.5,8.1,75,30.08,10.0,NE,4.6,-,N/A,,Mostly Cloudy,50,2013-02-16 14:55:00
10:01 AM,14.0,8.6,79,30.08,10.0,NE,5.8,-,N/A,,Mostly Cloudy,40,2013-02-16 15:01:00
10:03 AM,14.0,8.6,79,30.08,10.0,NNE,5.8,-,N/A,,Scattered Clouds,20,2013-02-16 15:03:00
10:55 AM,16.5,9.0,72,30.08,10.0,ENE,3.5,-,N/A,,Clear,60,2013-02-16 15:55:00
11:55 AM,19.4,7.7,60,30.06,10.0,Calm,Calm,-,N/A,,Clear,0,2013-02-16 16:55:00
12:55 PM,20.1,7.3,58,30.03,10.0,ENE,4.6,-,N/A,,Clear,70,2013-02-16 17:55:00
1:55 PM,21.0,5.2,51,30.01,10.0,NNW,5.8,-,N/A,,Clear,340,2013-02-16 18:55:00
2:55 PM,21.7,6.4,52,30.00,10.0,NNE,8.1,-,N/A,,Clear,30,2013-02-16 19:55:00
3:55 PM,21.7,7.0,53,30.01,10.0,NNE,4.6,-,N/A,,Clear,30,2013-02-16 20:55:00
4:55 PM,20.8,5.7,52,30.01,10.0,Variable,4.6,-,N/A,,Clear,0,2013-02-16 21:55:00
5:55 PM,17.8,3.6,54,30.02,10.0,NE,4.6,-,N/A,,Clear,40,2013-02-16 22:55:00
6:55 PM,15.6,2.7,57,30.04,10.0,NE,3.5,-,N/A,,Clear,50,2013-02-16 23:55:00
7:55 PM,14.0,2.1,59,30.03,10.0,NE,4.6,-,N/A,,Clear,50,2013-02-17 00:55:00
8:55 PM,13.1,1.9,61,30.01,10.0,ENE,4.6,-,N/A,,Clear,70,2013-02-17 01:55:00
9:55 PM,11.7,0.7,61,30.00,10.0,East,5.8,-,N/A,,Clear,80,2013-02-17 02:55:00
10:55 PM,9.3,-0.2,65,29.99,10.0,NE,5.8,-,N/A,,Clear,50,2013-02-17 03:55:00
11:55 PM,8.6,-0.6,66,29.97,10.0,ENE,5.8,-,N/A,,Clear,60,2013-02-17 04:55:00